Retour au catalogue

COSMOS 1828

ActifMilitairePO
NORAD 17583·PAYLOAD·🇷🇺 Russia

Lancé Mar 13, 1987 depuis Plesetsk Cosmodrome

Loading…

Prochains Passages (prochaines 24 heures)

TLE

FraisSource: Space-Track

Époque: Sep 14, 2026, 20:38 UTC

1 17583U 87026B   26257.85979939  .00000013  00000-0  14383-4 0  9995
2 17583  82.5627 108.2650 0018127 225.4930 164.7742 12.66270579825890

Suivez COSMOS 1828 en temps réel avec AllMySat

Download on the App Store